"Pseudo-MPEC" for P116eLy

Created 2020 Sep 19 23:07:28 UT using Find_Orb

Click here for an explanation of pseudo-MPECs

 
 Astrometry: 
     P116eLy  C2020 09 15sUQOy0h)so=S0=nBXAstrometryOYN0q_Uredacted;rrdJN^%TTF51
     P116eLy  C2020 09 15Ydvb]F%jVv^X?q-REqJ_MBW7F_O%?)ZxG0`^V@N3gkclick5^Sh)F51
     P116eLy  C2020 09 15$lBQherehSC49L9X0MWW8qpn7D[for.1'CIZe-^WOjy)g3vm'T#.F51
     P116eLy  C2020 09 15e5F7+o()P6oW4kyK*1UN0^ox4bYhfg.Uhy`7'Cg8yR1D+\NkV'OKF51
     P116eLy ^C2020 09 16.58273104 56 22.733-32 45 26.43   ~9GM7 21.30GVNEOCP568
     P116eLy ^C2020 09 16.58367704 56 22.755-32 45 26.70   ~9GM7 21.17GVNEOCP568
     P116eLy ^C2020 09 16.58462604 56 22.772-32 45 26.98   ~9GM7 21.18GVNEOCP568
     P116eLy KC2020 09 19%c48,TYn/GmI8tFZl_YxpW^,`TR[[B:EVR+d2SM3vLNv,A[?s+vW474
     P116eLy KC2020 09 19l62DSG%ub$+:coLpexplanationv`pLfEHr@*kmiAK5X73e^m`Fq474
     P116eLy KC2020 09 19E;5nA+j[VG!dsuHdhl`9'*o)ibCiYB^H6.adBc?`\:/!(!av\YZQ474

Station data:
(474) Mount John Observatory, Lake Tekapo  (S43.987388 E170.464960)  New
   Zealand.  Observers A. C. Gilmore, P. M. Kilmartin. Measurer P. M.
   Kilmartin. 1.0-m f/7.7 reflector + CCD.
(568) Mauna Kea  (N19.826116 W155.472200)  US/Hawaii.
(F51) Pan-STARRS 1, Haleakala  (N20.707235 W156.255910)  US/Hawaii.
   Observers N. Primak, A. Schultz, S. Watters, J. Thiel, T. Goggia. Measurer
   PS1 Science Consortium. 1.8-m Ritchey-Chrétien + CCD.

Orbital elements:  P116eLy
   Perihelion 2020 Jun 17.468991 +/- 7.56 TT = 11:15:20 (JD 2459017.968991)
Epoch 2020 Sep 19.0 TT = JDT 2459111.5   Earth MOID: 0.9104   AutoNEOCP
M  28.43364392 +/- 1.0              (J2000 ecliptic)
n   0.30400232 +/- 0.0191           Peri.  252.21086 +/- 5.2
a   2.19054130 +/- 0.0917           Node    84.72108 +/- 1.5
e   0.2008819 +/- 0.0395            Incl.   41.65694 +/- 0.29
P   3.24                   H 18.4   G  0.15   U 10.1  
q 1.75050107 +/- 0.0185    Q 2.63058154 +/- 0.188
From 10 observations 2020 Sept. 15-19; mean residual 0".09
Residuals in arcseconds: 
200915 F51  .02-  .06+    200916 568  .00   .02-    200919 474  .12+  .10+    
200915 F51  .10+  .02-    200916 568  .02+  .00     200919 474  .12+  .00     
200915 F51  .13-  .07-    200916 568  .01-  .02+    
200915 F51  .04+  .02+    200919 474  .24-  .10-    

Ephemerides (geocentric):
Date (UTC) HH   RA              Dec         delta   r     elong  mag " sig PA
---- -- -- --  -------------   -----------  ------ ------ -----  --- ---- ---
2020 09 19 23  04 57 27.364   -33 02 08.24  1.3443 1.8318 101.5 21.7 .197  50
2020 09 20 00  04 57 27.967   -33 02 20.55  1.3441 1.8319 101.5 21.7 .218  49
2020 09 20 01  04 57 28.566   -33 02 32.87  1.3439 1.8319 101.6 21.7 .240  49
2020 09 20 02  04 57 29.160   -33 02 45.18  1.3437 1.8320 101.6 21.7 .262  49
2020 09 20 03  04 57 29.749   -33 02 57.49  1.3435 1.8321 101.6 21.7 .285  49
2020 09 20 04  04 57 30.334   -33 03 09.79  1.3433 1.8321 101.6 21.7 .308  49
2020 09 20 05  04 57 30.913   -33 03 22.09  1.3431 1.8322 101.6 21.7 .331  49
2020 09 20 06  04 57 31.487   -33 03 34.39  1.3429 1.8323 101.7 21.7 .355  49
2020 09 20 07  04 57 32.057   -33 03 46.68  1.3427 1.8323 101.7 21.7 .380  49
2020 09 20 08  04 57 32.622   -33 03 58.97  1.3425 1.8324 101.7 21.7 .405  49
2020 09 20 09  04 57 33.182   -33 04 11.25  1.3423 1.8325 101.7 21.7 .430  49
2020 09 20 10  04 57 33.737   -33 04 23.53  1.3421 1.8325 101.7 21.7 .456  49
2020 09 20 11  04 57 34.287   -33 04 35.81  1.3418 1.8326 101.8 21.7 .482  49
2020 09 20 12  04 57 34.832   -33 04 48.08  1.3416 1.8327 101.8 21.7 .509  49
2020 09 20 13  04 57 35.373   -33 05 00.35  1.3414 1.8327 101.8 21.7 .536  49
2020 09 20 14  04 57 35.908   -33 05 12.62  1.3412 1.8328 101.8 21.7 .564  49
2020 09 20 15  04 57 36.439   -33 05 24.87  1.3410 1.8329 101.8 21.7 .592  49
2020 09 20 16  04 57 36.965   -33 05 37.13  1.3408 1.8329 101.9 21.7 .620  49
2020 09 20 17  04 57 37.486   -33 05 49.38  1.3406 1.8330 101.9 21.7 .649  49
2020 09 20 18  04 57 38.002   -33 06 01.63  1.3404 1.8331 101.9 21.7 .679  49
2020 09 20 19  04 57 38.513   -33 06 13.87  1.3402 1.8332 101.9 21.7 .709  49
2020 09 20 20  04 57 39.019   -33 06 26.11  1.3400 1.8332 101.9 21.7 .739  49
2020 09 20 21  04 57 39.520   -33 06 38.34  1.3398 1.8333 102.0 21.7 .770  49
2020 09 20 22  04 57 40.017   -33 06 50.57  1.3396 1.8334 102.0 21.7 .801  49
2020 09 20 23  04 57 40.508   -33 07 02.79  1.3394 1.8334 102.0 21.7 .833  49
2020 09 21 00  04 57 40.995   -33 07 15.01  1.3392 1.8335 102.0 21.7 .865  49
2020 09 21 01  04 57 41.477   -33 07 27.23  1.3390 1.8336 102.0 21.7 .898  49
2020 09 21 02  04 57 41.954   -33 07 39.44  1.3388 1.8336 102.1 21.7 .931  49
2020 09 21 03  04 57 42.426   -33 07 51.65  1.3386 1.8337 102.1 21.7 .965  50
2020 09 21 04  04 57 42.893   -33 08 03.85  1.3383 1.8338 102.1 21.7 1.00  50
2020 09 21 05  04 57 43.355   -33 08 16.04  1.3381 1.8338 102.1 21.7 1.03  50
2020 09 21 06  04 57 43.812   -33 08 28.23  1.3379 1.8339 102.1 21.7 1.07  50
2020 09 21 07  04 57 44.264   -33 08 40.42  1.3377 1.8340 102.2 21.7 1.10  50
2020 09 21 08  04 57 44.712   -33 08 52.60  1.3375 1.8340 102.2 21.7 1.14  50
2020 09 21 09  04 57 45.154   -33 09 04.78  1.3373 1.8341 102.2 21.7 1.18  50
2020 09 21 10  04 57 45.592   -33 09 16.95  1.3371 1.8342 102.2 21.7 1.21  50
2020 09 21 11  04 57 46.025   -33 09 29.12  1.3369 1.8342 102.2 21.7 1.25  50
2020 09 21 12  04 57 46.452   -33 09 41.28  1.3367 1.8343 102.3 21.7 1.29  50
2020 09 21 13  04 57 46.875   -33 09 53.43  1.3365 1.8344 102.3 21.7 1.33  50
2020 09 21 14  04 57 47.293   -33 10 05.59  1.3363 1.8344 102.3 21.7 1.37  50
2020 09 21 15  04 57 47.706   -33 10 17.73  1.3361 1.8345 102.3 21.7 1.41  50
2020 09 21 16  04 57 48.114   -33 10 29.87  1.3359 1.8346 102.3 21.7 1.45  50
2020 09 21 17  04 57 48.517   -33 10 42.01  1.3357 1.8346 102.4 21.7 1.49  51
2020 09 21 18  04 57 48.915   -33 10 54.14  1.3355 1.8347 102.4 21.7 1.53  51
2020 09 21 19  04 57 49.308   -33 11 06.26  1.3353 1.8348 102.4 21.7 1.57  51
2020 09 21 20  04 57 49.697   -33 11 18.38  1.3351 1.8349 102.4 21.7 1.61  51
2020 09 21 21  04 57 50.080   -33 11 30.50  1.3348 1.8349 102.4 21.7 1.65  51
2020 09 21 22  04 57 50.459   -33 11 42.61  1.3346 1.8350 102.5 21.7 1.70  51